CW9507 Weather Reports


time (UTC)temp
C
wind
direction
speed
KPH
gust
KPH
rain 1hr
cm
rain 24hr
cm
rain mn
cm
humidity
%
barometer
mb
20260505093043 13 189 0.0 4.8 0.00 6.40 0.18 89 1001.3
20260505091540 13 211 0.0 8.0 0.00 6.40 0.18 89 1001.2
20260505090042 13 279 0.0 1.6 0.05 6.40 0.18 89 1001.3
20260505084546 13 242 0.0 11.3 0.05 6.60 0.18 88 1001.2
20260505083048 14 204 0.0 9.7 0.08 6.60 0.18 87 1000.9
20260505083010 14 198 0.0 9.7 0.08 6.60 0.18 87 1000.9
20260505081541 14 238 0.0 14.5 0.08 6.60 0.18 86 1000.7
20260505080036 14 271 0.0 11.3 0.03 6.55 0.13 87 1000.5
20260505074535 14 189 0.0 14.5 0.08 6.78 0.13 86 1000.2
20260505073037 14 244 0.0 11.3 0.05 6.76 0.10 87 999.9
20260505071535 14 186 0.0 1.6 0.05 6.76 0.10 88 999.6
20260505070041 13 267 1.6 16.1 0.05 6.76 0.10 90 999.4
20260505064529 13 222 0.0 0.0 0.00 6.96 0.05 91 999.9
20260505063032 13 187 0.0 0.0 0.00 6.96 0.05 92 1000.0
20260505061606 13 155 0.0 0.0 0.00 6.96 0.05 92 1000.3
20260505060033 13 200 0.0 0.0 0.00 6.96 0.05 92 1000.5
20260505054532 13 192 0.0 0.0 0.00 6.96 0.05 91 1000.8
20260505053021 14 225 0.0 0.0 0.00 6.96 0.05 91 1000.4
20260505051519 14 221 0.0 0.0 0.03 6.96 0.05 90 1001.0
20260505041507 16 246 0.0 14.5 0.33 7.11 0.03 85 1001.5
20260505040002 18 269 0.0 1.6 0.51 7.21 7.09 72 1000.3
20260505034501 18 182 0.0 19.3 0.48 7.14 7.01 65 1000.0
20260505033105 19 175 0.0 11.3 0.41 7.04 6.91 65 1000.0
20260505031600 19 219 0.0 14.5 0.33 6.91 6.78 65 1000.1
20260505030059 18 208 0.0 8.0 0.13 6.71 6.58 67 1000.2
20260505024557 18 181 0.0 4.8 0.13 6.78 6.53 66 1000.5
20260505023101 19 236 0.0 6.4 0.13 6.76 6.50 66 1000.6
20260505021558 19 194 0.0 17.7 0.15 6.71 6.45 65 1000.6
20260505020059 19 227 0.0 4.8 0.15 6.71 6.45 65 1000.3
20260505014556 19 166 0.0 4.8 0.13 6.68 6.40 66 1000.1
20260505013055 18 221 0.0 1.6 0.10 6.65 6.35 66 1000.0
20260505011610 18 214 0.0 11.3 0.03 6.58 6.30 67 1000.0
20260505010055 17 213 0.0 12.9 0.03 6.58 6.30 73 999.8
20260505004604 16 226 0.0 0.0 0.00 6.55 6.27 84 999.9
20260505003055 15 213 0.0 1.6 0.00 6.55 6.27 89 999.8
20260505001605 15 289 0.0 0.0 0.03 6.55 6.27 89 999.9
20260505000106 16 232 0.0 0.0 0.05 6.55 6.27 88 999.5
20260504234552 16 302 0.0 0.0 0.08 7.42 6.27 85 999.3
20260504233102 17 93 0.0 0.0 0.20 7.42 6.27 78 999.1
20260504231548 21 325 0.0 6.4 0.25 7.37 6.22 64 999.7
20260504230046 22 231 0.0 12.9 0.33 7.37 6.22 53 998.7
20260504224546 23 257 0.0 20.9 0.36 8.86 6.20 51 998.9
20260504223047 23 239 0.0 6.4 0.43 8.74 6.07 49 998.8
20260504221544 24 172 0.0 25.7 0.48 8.64 5.97 49 998.8
20260504220042 24 181 0.0 14.5 0.53 8.56 5.87 49 999.1
20260504214541 23 227 3.2 29.0 0.61 9.63 5.82 50 999.2
20260504213038 23 173 0.0 22.5 0.58 9.42 5.64 52 999.3
20260504211535 24 184 0.0 16.1 0.71 9.27 5.49 51 999.7
20260504210034 23 205 0.0 19.3 0.79 9.14 5.36 51 1000.0
20260504204530 23 202 0.0 17.7 0.91 10.87 5.18 52 1000.3
20260504203028 23 175 0.0 16.1 0.91 10.72 5.05 50 1000.4
20260504201527 23 185 0.0 6.4 0.86 10.39 4.75 45 1000.6
20260504200026 23 186 3.2 17.7 1.04 10.24 4.57 43 1000.6
20260504194528 23 169 0.0 17.7 0.89 11.56 4.29 42 1000.9
20260504193020 23 226 0.0 20.9 0.89 11.43 4.14 41 1001.2
20260504191519 23 181 0.0 17.7 0.91 11.18 3.89 42 1001.3
20260504190018 23 225 0.0 24.1 0.69 10.82 3.53 41 1001.5
20260504184516 23 291 0.0 14.5 0.69 12.45 3.38 41 1001.5
20260504183011 23 159 3.2 19.3 0.64 12.29 3.25 39 1001.6
20260504181512 23 107 0.0 19.3 0.36 12.04 2.97 39 1001.9
20260504180008 22 178 1.6 16.1 0.38 11.91 2.84 40 1002.1
20260504174509 22 229 0.0 12.9 0.33 13.13 2.69 42 1002.4
20260504173105 22 163 0.0 11.3 0.33 13.06 2.62 45 1002.6
20260504171557 21 240 1.6 14.5 0.51 13.06 2.62 49 1002.8